Hickory, NC

9:35 PM EDT on May 20, 2018 (GMT -0400)
Hickory Regional

Weather History for KHKY - July, 2013

Change the Weather History Date:

Sunday, July 21, 2013

  Actual Average Record
Temperature  
Mean Temperature 76 °F -  
Max Temperature 86 °F 88 °F 101 °F (1952)
Min Temperature 68 °F 68 °F 61 °F (1951)
Cooling Degree Days 11    
Growing Degree Days 26 (Base 50)    
Moisture  
Dew Point 69 °F    
Average Humidity 90    
Maximum Humidity 100    
Minimum Humidity 61    
Precipitation  
Precipitation 0.05 in - - ()
Sea Level Pressure  
Sea Level Pressure 29.98 in    
Wind  
Wind Speed 1 mph (SW)    
Max Wind Speed 12 mph    
Max Gust Speed -    
Visibility 5 miles    
Events Fog , Rain , Thunderstorm    
Averages and records for this station are not official NWS values.
T = Trace of Precipitation, MM = Missing Value Source: NWS Daily Summary

Daily Weather History Graph

Daily Weather History Graph

Search for Another Location

Airport or City:

Astronomy

Jul. 21, 2013 Rise Set
Actual Time 6:25 AM EDT 8:38 PM EDT
Civil Twilight 5:56 AM EDT 9:07 PM EDT
Nautical Twilight 5:21 AM EDT 9:42 PM EDT
Astronomical Twilight 4:42 AM EDT 10:20 PM EDT
Moon 7:36 PM EDT 5:08 AM EDT
Length of Visible Light 15h 10m
Length of Day
14h 12m
Waxing Gibbous, 98% of the Moon is Illuminated
Jul 21
Waxing Gibbous
Jul 22
Full
Jul 29
Last Quarter
Aug 6
New
Aug 14
First Quarter

Hourly Weather History & Observations

Time (EDT) Temp. Heat Index Dew Point Humidity Pressure Visibility Wind Dir Wind Speed Gust Speed Precip Events Conditions
12:03 AM 69.8 °F - 69.8 °F 100% 30.04 in 2.0 mi Calm Calm - N/A   Mostly Cloudy
12:10 AM 69.8 °F - 69.8 °F 100% 30.03 in 4.0 mi Calm Calm - N/A   Scattered Clouds
12:53 AM 69.1 °F - 68.0 °F 96% 29.95 in 5.0 mi Calm Calm - N/A   Clear
1:38 AM 69.8 °F - 68.0 °F 94% 30.01 in 2.5 mi Calm Calm - N/A   Partly Cloudy
1:53 AM 69.1 °F - 68.0 °F 96% 29.95 in 5.0 mi Calm Calm - N/A   Clear
2:22 AM 69.8 °F - 68.0 °F 94% 30.00 in 2.5 mi South 3.5 mph - N/A   Scattered Clouds
2:26 AM 69.8 °F - 68.0 °F 94% 30.00 in 1.8 mi Calm Calm - N/A   Mostly Cloudy
2:35 AM 69.8 °F - 68.0 °F 94% 29.99 in 0.8 mi Calm Calm - N/A   Mostly Cloudy
2:53 AM 69.1 °F - 68.0 °F 96% 29.94 in 0.5 mi Calm Calm - N/A Fog Fog
3:09 AM 69.8 °F - 66.2 °F 88% 30.00 in 0.8 mi Calm Calm - N/A   Mist
3:16 AM 69.8 °F - 66.2 °F 88% 30.00 in 0.8 mi Calm Calm - N/A   Mist
3:49 AM 69.8 °F - 66.2 °F 88% 29.99 in 0.2 mi Calm Calm - N/A Fog Fog
3:53 AM 69.1 °F - 66.9 °F 93% 29.94 in 0.2 mi South 3.5 mph - N/A Fog Fog
4:47 AM 68.0 °F - 66.2 °F 94% 29.99 in 0.5 mi Calm Calm - N/A Fog Fog
4:53 AM 68.0 °F - 66.9 °F 96% 29.94 in 0.5 mi Calm Calm - N/A Fog Fog
5:08 AM 68.0 °F - 66.2 °F 94% 29.99 in 0.2 mi Calm Calm - N/A Fog Fog
5:20 AM 68.0 °F - 66.2 °F 94% 29.99 in 0.5 mi Calm Calm - N/A Fog Fog
5:53 AM 68.0 °F - 66.9 °F 96% 29.94 in 0.5 mi Calm Calm - N/A Fog Fog
6:23 AM 68.0 °F - 66.2 °F 94% 29.99 in 1.5 mi Calm Calm - N/A   Overcast
6:35 AM 68.0 °F - 66.2 °F 94% 29.99 in 0.2 mi Calm Calm - N/A Fog Fog
6:53 AM 68.0 °F - 66.9 °F 96% 29.94 in 0.2 mi Calm Calm - N/A Fog Fog
7:53 AM 69.1 °F - 66.9 °F 93% 29.96 in 0.2 mi Calm Calm - N/A Fog Fog
8:13 AM 69.8 °F - 68.0 °F 94% 30.02 in 0.8 mi Calm Calm - N/A   Mist
8:43 AM 69.8 °F - 68.0 °F 94% 30.04 in 1.2 mi Calm Calm - N/A   Overcast
8:53 AM 70.0 °F - 68.0 °F 93% 29.98 in 1.5 mi Calm Calm - N/A   Overcast
9:04 AM 69.8 °F - 68.0 °F 94% 30.03 in 3.0 mi Calm Calm - N/A   Overcast
9:13 AM 69.8 °F - 68.0 °F 94% 30.03 in 1.8 mi Calm Calm - N/A   Overcast
9:21 AM 69.8 °F - 69.8 °F 100% 30.04 in 3.0 mi Calm Calm - N/A   Overcast
9:53 AM 70.0 °F - 68.0 °F 93% 29.99 in 7.0 mi Calm Calm - N/A   Overcast
10:39 AM 73.4 °F - 69.8 °F 88% 30.05 in 10.0 mi SSW 4.6 mph - N/A   Overcast
10:53 AM 73.9 °F - 70.0 °F 87% 29.99 in 10.0 mi Calm Calm - N/A   Mostly Cloudy
11:04 AM 78.8 °F - 69.8 °F 74% 30.05 in 10.0 mi Calm Calm - N/A   Scattered Clouds
11:53 AM 80.1 °F 83.8 °F 72.0 °F 76% 29.98 in 10.0 mi Calm Calm - N/A   Clear
12:53 PM 82.0 °F 86.7 °F 72.0 °F 71% 29.96 in 10.0 mi Variable 3.5 mph - N/A   Clear
1:53 PM 84.9 °F 89.4 °F 70.0 °F 61% 29.94 in 10.0 mi South 3.5 mph - N/A   Clear
2:14 PM 82.4 °F 86.3 °F 69.8 °F 66% 30.00 in 10.0 mi SSE 3.5 mph - N/A Thunderstorm Scattered Clouds
2:51 PM 75.2 °F - 71.6 °F 89% 29.99 in 7.0 mi WSW 10.4 mph - 0.01 in Rain Rain
2:53 PM 75.9 °F - 70.0 °F 82% 29.93 in 6.0 mi WSW 11.5 mph - 0.01 in Rain Rain
3:16 PM 75.2 °F - 71.6 °F 89% 29.99 in 10.0 mi SW 5.8 mph - 0.00 in Rain , Thunderstorm Light Rain
3:31 PM 73.4 °F - 69.8 °F 88% 29.99 in 9.0 mi SW 5.8 mph - 0.01 in Rain Light Rain
3:53 PM 75.0 °F - 70.0 °F 84% 29.93 in 10.0 mi West 5.8 mph - 0.02 in   Partly Cloudy
4:53 PM 75.0 °F - 70.0 °F 84% 29.93 in 10.0 mi NW 3.5 mph - N/A   Mostly Cloudy
5:53 PM 75.0 °F - 70.0 °F 84% 29.92 in 9.0 mi West 6.9 mph - 0.00 in Rain Light Rain
6:53 PM 73.9 °F - 70.0 °F 87% 29.92 in 10.0 mi Calm Calm - 0.01 in   Mostly Cloudy
7:53 PM 73.9 °F - 71.1 °F 91% 29.91 in 10.0 mi Calm Calm - 0.00 in Rain Light Rain
8:53 PM 73.0 °F - 71.1 °F 93% 29.94 in 9.0 mi Calm Calm - 0.01 in   Clear
9:03 PM 73.4 °F - 71.6 °F 94% 30.00 in 8.0 mi Calm Calm - N/A   Scattered Clouds
9:53 PM 73.0 °F - 71.1 °F 93% 29.95 in 9.0 mi Calm Calm - N/A   Clear
10:53 PM 73.0 °F - 70.0 °F 90% 29.96 in 10.0 mi Calm Calm - N/A   Partly Cloudy
11:53 PM 73.0 °F - 70.0 °F 90% 29.96 in 10.0 mi Calm Calm - N/A   Clear